owner,sensor,date,latitude,longitude,vertical_datum,mass_concentration_of_oxygen_in_sea_water,qcFlag 
DISL,ioos:station:DISL:MBLA:1,2010-05-01T00:03:00Z,30.4367,-88.0117,2.954,7.46,1111122 
DISL,ioos:station:DISL:MBLA:1,2010-05-01T00:05:00Z,30.4367,-88.0117,2.451,7.58,1111122 
DISL,ioos:station:DISL:MBLA:1,2010-05-01T00:07:00Z,30.4367,-88.0117,2.009,7.86,1111122 
DISL,ioos:station:DISL:MBLA:1,2010-05-01T00:10:00Z,30.4367,-88.0117,1.5,8.15,1111122 
DISL,ioos:station:DISL:MBLA:1,2010-05-01T00:12:00Z,30.4367,-88.0117,0.957,8.08,1111122 
DISL,ioos:station:DISL:MBLA:1,2010-05-01T00:15:00Z,30.4367,-88.0117,0.429,8.08,1111122 
DISL,ioos:station:DISL:MBLA:1,2010-05-01T01:03:00Z,30.4367,-88.0117,2.958,7.51,1111122 
DISL,ioos:station:DISL:MBLA:1,2010-05-01T01:05:00Z,30.4367,-88.0117,2.515,7.77,1111122 
DISL,ioos:station:DISL:MBLA:1,2010-05-01T01:07:00Z,30.4367,-88.0117,2.012,8.14,1111122 
DISL,ioos:station:DISL:MBLA:1,2010-05-01T01:10:00Z,30.4367,-88.0117,1.495,8.38,1111122 
DISL,ioos:station:DISL:MBLA:1,2010-05-01T01:12:00Z,30.4367,-88.0117,1.12,8.54,1111122 
DISL,ioos:station:DISL:MBLA:1,2010-05-01T01:15:00Z,30.4367,-88.0117,0.476,8.74,1111122 
DISL,ioos:station:DISL:MBLA:1,2010-05-01T02:02:00Z,30.4367,-88.0117,2.907,7.93,1111122 
DISL,ioos:station:DISL:MBLA:1,2010-05-01T02:05:00Z,30.4367,-88.0117,2.468,8.05,1111122 
DISL,ioos:station:DISL:MBLA:1,2010-05-01T02:07:00Z,30.4367,-88.0117,2.014,8.12,1111122 
DISL,ioos:station:DISL:MBLA:1,2010-05-01T02:10:00Z,30.4367,-88.0117,1.52,8.25,1111122 
DISL,ioos:station:DISL:MBLA:1,2010-05-01T02:12:00Z,30.4367,-88.0117,0.991,8.49,1111122 
DISL,ioos:station:DISL:MBLA:1,2010-05-01T02:14:00Z,30.4367,-88.0117,0.316,8.53,1111122 
DISL,ioos:station:DISL:MBLA:1,2010-05-01T03:03:00Z,30.4367,-88.0117,2.992,7.52,1111122 
DISL,ioos:station:DISL:MBLA:1,2010-05-01T03:05:00Z,30.4367,-88.0117,2.512,7.92,1111122 
DISL,ioos:station:DISL:MBLA:1,2010-05-01T03:07:00Z,30.4367,-88.0117,2.035,8.03,1111122 
DISL,ioos:station:DISL:MBLA:1,2010-05-01T03:10:00Z,30.4367,-88.0117,1.563,8.01,1111122 
DISL,ioos:station:DISL:MBLA:1,2010-05-01T03:12:00Z,30.4367,-88.0117,1.01,8.07,1111122 
DISL,ioos:station:DISL:MBLA:1,2010-05-01T03:15:00Z,30.4367,-88.0117,0.459,8.09,1111122 
DISL,ioos:station:DISL:MBLA:1,2010-05-01T04:02:00Z,30.4367,-88.0117,2.931,7.37,1111122 
DISL,ioos:station:DISL:MBLA:1,2010-05-01T04:05:00Z,30.4367,-88.0117,2.532,7.62,1111122 
DISL,ioos:station:DISL:MBLA:1,2010-05-01T04:07:00Z,30.4367,-88.0117,2.03,7.81,1111122 
DISL,ioos:station:DISL:MBLA:1,2010-05-01T04:10:00Z,30.4367,-88.0117,1.489,7.85,1111122 
DISL,ioos:station:DISL:MBLA:1,2010-05-01T04:12:00Z,30.4367,-88.0117,1.052,7.89,1111122 
DISL,ioos:station:DISL:MBLA:1,2010-05-01T04:15:00Z,30.4367,-88.0117,0.327,7.95,1111122 
DISL,ioos:station:DISL:MBLA:1,2010-05-01T05:02:00Z,30.4367,-88.0117,2.969,7.53,1111122 
DISL,ioos:station:DISL:MBLA:1,2010-05-01T05:05:00Z,30.4367,-88.0117,2.531,7.77,1111122 
DISL,ioos:station:DISL:MBLA:1,2010-05-01T05:07:00Z,30.4367,-88.0117,2.037,7.9,1111122 
DISL,ioos:station:DISL:MBLA:1,2010-05-01T05:10:00Z,30.4367,-88.0117,1.321,7.89,1111122 
DISL,ioos:station:DISL:MBLA:1,2010-05-01T05:12:00Z,30.4367,-88.0117,1.035,7.89,1111122 
DISL,ioos:station:DISL:MBLA:1,2010-05-01T05:15:00Z,30.4367,-88.0117,0.372,7.97,1111122 
DISL,ioos:station:DISL:MBLA:1,2010-05-01T06:03:00Z,30.4367,-88.0117,2.999,7.34,1111122 
DISL,ioos:station:DISL:MBLA:1,2010-05-01T06:05:00Z,30.4367,-88.0117,2.425,7.79,1111122 
DISL,ioos:station:DISL:MBLA:1,2010-05-01T06:07:00Z,30.4367,-88.0117,2.011,7.88,1111122 
DISL,ioos:station:DISL:MBLA:1,2010-05-01T06:10:00Z,30.4367,-88.0117,1.566,7.94,1111122 
DISL,ioos:station:DISL:MBLA:1,2010-05-01T06:12:00Z,30.4367,-88.0117,1.022,7.95,1111122 
DISL,ioos:station:DISL:MBLA:1,2010-05-01T06:15:00Z,30.4367,-88.0117,0.461,7.95,1111122 
DISL,ioos:station:DISL:MBLA:1,2010-05-01T07:03:00Z,30.4367,-88.0117,3.166,7.35,1111122 
DISL,ioos:station:DISL:MBLA:1,2010-05-01T07:05:00Z,30.4367,-88.0117,2.473,7.73,1111122 
DISL,ioos:station:DISL:MBLA:1,2010-05-01T07:08:00Z,30.4367,-88.0117,2.003,7.83,1111122 
DISL,ioos:station:DISL:MBLA:1,2010-05-01T07:10:00Z,30.4367,-88.0117,1.71,7.89,1111122 
DISL,ioos:station:DISL:MBLA:1,2010-05-01T07:13:00Z,30.4367,-88.0117,0.901,7.87,1111122 
DISL,ioos:station:DISL:MBLA:1,2010-05-01T07:16:00Z,30.4367,-88.0117,0.658,7.89,1111122 
DISL,ioos:station:DISL:MBLA:1,2010-05-01T08:03:00Z,30.4367,-88.0117,2.953,7.52,1111122 
DISL,ioos:station:DISL:MBLA:1,2010-05-01T08:05:00Z,30.4367,-88.0117,2.527,7.76,1111122 
DISL,ioos:station:DISL:MBLA:1,2010-05-01T08:07:00Z,30.4367,-88.0117,1.942,7.83,1111122 
DISL,ioos:station:DISL:MBLA:1,2010-05-01T08:10:00Z,30.4367,-88.0117,1.613,7.89,1111122 
DISL,ioos:station:DISL:MBLA:1,2010-05-01T08:12:00Z,30.4367,-88.0117,1.092,7.93,1111122 
DISL,ioos:station:DISL:MBLA:1,2010-05-01T08:15:00Z,30.4367,-88.0117,0.613,7.93,1111122 
DISL,ioos:station:DISL:MBLA:1,2010-05-01T09:02:00Z,30.4367,-88.0117,2.985,7.22,1111122 
DISL,ioos:station:DISL:MBLA:1,2010-05-01T09:05:00Z,30.4367,-88.0117,2.374,7.64,1111122 
DISL,ioos:station:DISL:MBLA:1,2010-05-01T09:08:00Z,30.4367,-88.0117,1.924,7.74,1111122 
DISL,ioos:station:DISL:MBLA:1,2010-05-01T09:10:00Z,30.4367,-88.0117,1.37,7.79,1111122 
DISL,ioos:station:DISL:MBLA:1,2010-05-01T09:13:00Z,30.4367,-88.0117,0.989,7.82,1111122 
DISL,ioos:station:DISL:MBLA:1,2010-05-01T09:15:00Z,30.4367,-88.0117,0.573,7.82,1111122 
DISL,ioos:station:DISL:MBLA:1,2010-05-01T10:02:00Z,30.4367,-88.0117,2.932,7.53,1111122 
DISL,ioos:station:DISL:MBLA:1,2010-05-01T10:05:00Z,30.4367,-88.0117,2.518,7.67,1111122 
DISL,ioos:station:DISL:MBLA:1,2010-05-01T10:07:00Z,30.4367,-88.0117,2.076,7.73,1111122 
DISL,ioos:station:DISL:MBLA:1,2010-05-01T10:10:00Z,30.4367,-88.0117,1.522,7.72,1111122 
DISL,ioos:station:DISL:MBLA:1,2010-05-01T10:12:00Z,30.4367,-88.0117,1.076,7.71,1111122 
DISL,ioos:station:DISL:MBLA:1,2010-05-01T10:15:00Z,30.4367,-88.0117,0.51,7.77,1111122 
DISL,ioos:station:DISL:MBLA:1,2010-05-01T11:03:00Z,30.4367,-88.0117,2.832,7.51,1111122 
DISL,ioos:station:DISL:MBLA:1,2010-05-01T11:05:00Z,30.4367,-88.0117,2.581,7.59,1111122 
DISL,ioos:station:DISL:MBLA:1,2010-05-01T11:07:00Z,30.4367,-88.0117,2.044,7.63,1111122 
DISL,ioos:station:DISL:MBLA:1,2010-05-01T11:10:00Z,30.4367,-88.0117,1.509,7.63,1111122 
DISL,ioos:station:DISL:MBLA:1,2010-05-01T11:13:00Z,30.4367,-88.0117,0.838,7.58,1111122 
DISL,ioos:station:DISL:MBLA:1,2010-05-01T11:15:00Z,30.4367,-88.0117,0.49,7.66,1111122 
DISL,ioos:station:DISL:MBLA:1,2010-05-01T14:02:00Z,30.4367,-88.0117,2.879,7.33,1111122 
DISL,ioos:station:DISL:MBLA:1,2010-05-01T14:05:00Z,30.4367,-88.0117,2.54,7.42,1111122 
DISL,ioos:station:DISL:MBLA:1,2010-05-01T14:08:00Z,30.4367,-88.0117,2.052,7.49,1111122 
DISL,ioos:station:DISL:MBLA:1,2010-05-01T14:10:00Z,30.4367,-88.0117,1.465,7.51,1111122 
DISL,ioos:station:DISL:MBLA:1,2010-05-01T14:12:00Z,30.4367,-88.0117,1.036,7.51,1111122 
DISL,ioos:station:DISL:MBLA:1,2010-05-01T14:15:00Z,30.4367,-88.0117,0.647,7.69,1111122 
DISL,ioos:station:DISL:MBLA:1,2010-05-01T15:02:00Z,30.4367,-88.0117,2.999,7.47,1111122 
DISL,ioos:station:DISL:MBLA:1,2010-05-01T15:05:00Z,30.4367,-88.0117,2.413,7.52,1111122 
DISL,ioos:station:DISL:MBLA:1,2010-05-01T15:07:00Z,30.4367,-88.0117,2.018,7.68,1111122 
DISL,ioos:station:DISL:MBLA:1,2010-05-01T15:10:00Z,30.4367,-88.0117,1.481,7.61,1111122 
DISL,ioos:station:DISL:MBLA:1,2010-05-01T15:12:00Z,30.4367,-88.0117,0.772,7.77,1111122 
DISL,ioos:station:DISL:MBLA:1,2010-05-01T15:15:00Z,30.4367,-88.0117,0.332,7.99,1111122 
DISL,ioos:station:DISL:MBLA:1,2010-05-01T16:02:00Z,30.4367,-88.0117,3.002,7.56,1111122 
DISL,ioos:station:DISL:MBLA:1,2010-05-01T16:05:00Z,30.4367,-88.0117,2.331,7.64,1111122 
DISL,ioos:station:DISL:MBLA:1,2010-05-01T16:07:00Z,30.4367,-88.0117,1.98,7.68,1111122 
DISL,ioos:station:DISL:MBLA:1,2010-05-01T16:10:00Z,30.4367,-88.0117,1.424,7.71,1111122 
DISL,ioos:station:DISL:MBLA:1,2010-05-01T16:13:00Z,30.4367,-88.0117,0.703,7.77,1111122 
DISL,ioos:station:DISL:MBLA:1,2010-05-01T16:15:00Z,30.4367,-88.0117,0.538,7.95,1111122 
DISL,ioos:station:DISL:MBLA:1,2010-05-01T17:02:00Z,30.4367,-88.0117,3.044,7.71,1111122 
DISL,ioos:station:DISL:MBLA:1,2010-05-01T17:05:00Z,30.4367,-88.0117,2.373,7.79,1111122 
DISL,ioos:station:DISL:MBLA:1,2010-05-01T17:08:00Z,30.4367,-88.0117,1.944,7.68,1111122 
DISL,ioos:station:DISL:MBLA:1,2010-05-01T17:11:00Z,30.4367,-88.0117,1.361,7.7,1111122 
DISL,ioos:station:DISL:MBLA:1,2010-05-01T17:13:00Z,30.4367,-88.0117,0.911,7.75,1111122 
DISL,ioos:station:DISL:MBLA:1,2010-05-01T17:15:00Z,30.4367,-88.0117,0.391,7.99,1111122 
DISL,ioos:station:DISL:MBLA:1,2010-05-01T18:03:00Z,30.4367,-88.0117,3.132,7.92,1111122 
DISL,ioos:station:DISL:MBLA:1,2010-05-01T18:05:00Z,30.4367,-88.0117,2.445,7.98,1111122 
DISL,ioos:station:DISL:MBLA:1,2010-05-01T18:07:00Z,30.4367,-88.0117,1.96,8.09,1111122 
DISL,ioos:station:DISL:MBLA:1,2010-05-01T18:10:00Z,30.4367,-88.0117,1.49,8.16,1111122 
DISL,ioos:station:DISL:MBLA:1,2010-05-01T18:12:00Z,30.4367,-88.0117,0.888,8.19,1111122 
DISL,ioos:station:DISL:MBLA:1,2010-05-01T18:15:00Z,30.4367,-88.0117,0.463,8.45,1111122 
DISL,ioos:station:DISL:MBLA:1,2010-05-01T19:02:00Z,30.4367,-88.0117,2.935,8.06,1111122 
DISL,ioos:station:DISL:MBLA:1,2010-05-01T19:05:00Z,30.4367,-88.0117,2.55,7.99,1111122 
DISL,ioos:station:DISL:MBLA:1,2010-05-01T19:08:00Z,30.4367,-88.0117,2.021,8.17,1111122 
DISL,ioos:station:DISL:MBLA:1,2010-05-01T19:10:00Z,30.4367,-88.0117,1.608,8.2,1111122 
DISL,ioos:station:DISL:MBLA:1,2010-05-01T19:12:00Z,30.4367,-88.0117,0.787,8.1,1111122 
DISL,ioos:station:DISL:MBLA:1,2010-05-01T19:15:00Z,30.4367,-88.0117,0.754,8.34,1111122 
DISL,ioos:station:DISL:MBLA:1,2010-05-01T20:03:00Z,30.4367,-88.0117,2.984,8.21,1111122 
DISL,ioos:station:DISL:MBLA:1,2010-05-01T20:05:00Z,30.4367,-88.0117,2.591,8.33,1111122 
DISL,ioos:station:DISL:MBLA:1,2010-05-01T20:08:00Z,30.4367,-88.0117,2.002,8.38,1111122 
DISL,ioos:station:DISL:MBLA:1,2010-05-01T20:11:00Z,30.4367,-88.0117,1.493,8.41,1111122 
DISL,ioos:station:DISL:MBLA:1,2010-05-01T20:13:00Z,30.4367,-88.0117,0.97,8.38,1111122 
DISL,ioos:station:DISL:MBLA:1,2010-05-01T20:16:00Z,30.4367,-88.0117,0.6,8.52,1111122 
DISL,ioos:station:DISL:MBLA:1,2010-05-01T21:03:00Z,30.4367,-88.0117,2.975,8.42,1111122 
DISL,ioos:station:DISL:MBLA:1,2010-05-01T21:05:00Z,30.4367,-88.0117,2.445,8.52,1111122 
DISL,ioos:station:DISL:MBLA:1,2010-05-01T21:08:00Z,30.4367,-88.0117,2.067,8.38,1111122 
DISL,ioos:station:DISL:MBLA:1,2010-05-01T21:10:00Z,30.4367,-88.0117,1.548,8.39,1111122 
DISL,ioos:station:DISL:MBLA:1,2010-05-01T21:13:00Z,30.4367,-88.0117,1.097,8.33,1111122 
DISL,ioos:station:DISL:MBLA:1,2010-05-01T21:16:00Z,30.4367,-88.0117,0.414,8.36,1111122 
DISL,ioos:station:DISL:MBLA:1,2010-05-01T22:02:00Z,30.4367,-88.0117,2.977,8.23,1111122 
DISL,ioos:station:DISL:MBLA:1,2010-05-01T22:05:00Z,30.4367,-88.0117,2.627,8.64,1111122 
DISL,ioos:station:DISL:MBLA:1,2010-05-01T22:07:00Z,30.4367,-88.0117,1.953,8.6,1111122 
DISL,ioos:station:DISL:MBLA:1,2010-05-01T22:11:00Z,30.4367,-88.0117,1.386,8.65,1111122 
DISL,ioos:station:DISL:MBLA:1,2010-05-01T22:13:00Z,30.4367,-88.0117,0.866,8.66,1111122 
DISL,ioos:station:DISL:MBLA:1,2010-05-01T22:16:00Z,30.4367,-88.0117,0.452,8.87,1111122 
DISL,ioos:station:DISL:MBLA:1,2010-05-01T23:03:00Z,30.4367,-88.0117,2.949,8.06,1111122 
DISL,ioos:station:DISL:MBLA:1,2010-05-01T23:05:00Z,30.4367,-88.0117,2.525,8.23,1111122 
DISL,ioos:station:DISL:MBLA:1,2010-05-01T23:08:00Z,30.4367,-88.0117,2.05,8.18,1111122 
DISL,ioos:station:DISL:MBLA:1,2010-05-01T23:10:00Z,30.4367,-88.0117,1.627,8.15,1111122 
DISL,ioos:station:DISL:MBLA:1,2010-05-01T23:13:00Z,30.4367,-88.0117,1.027,8.14,1111122 
DISL,ioos:station:DISL:MBLA:1,2010-05-01T23:15:00Z,30.4367,-88.0117,0.279,8.25,1111122 
DISL,ioos:station:DISL:MBLA:1,2010-05-02T00:03:00Z,30.4367,-88.0117,3.036,8.18,1111122 
DISL,ioos:station:DISL:MBLA:1,2010-05-02T00:05:00Z,30.4367,-88.0117,2.574,8.33,1111122 
DISL,ioos:station:DISL:MBLA:1,2010-05-02T00:08:00Z,30.4367,-88.0117,2.031,8.37,1111122 
DISL,ioos:station:DISL:MBLA:1,2010-05-02T00:10:00Z,30.4367,-88.0117,1.552,8.34,1111122 
DISL,ioos:station:DISL:MBLA:1,2010-05-02T00:13:00Z,30.4367,-88.0117,0.861,8.28,1111122 
DISL,ioos:station:DISL:MBLA:1,2010-05-02T00:15:00Z,30.4367,-88.0117,0.357,8.4,1111122 
DISL,ioos:station:DISL:MBLA:1,2010-05-02T01:02:00Z,30.4367,-88.0117,3.009,7.55,1111122 
DISL,ioos:station:DISL:MBLA:1,2010-05-02T01:05:00Z,30.4367,-88.0117,2.473,7.94,1111122 
DISL,ioos:station:DISL:MBLA:1,2010-05-02T01:07:00Z,30.4367,-88.0117,2.019,8.06,1111122 
DISL,ioos:station:DISL:MBLA:1,2010-05-02T01:10:00Z,30.4367,-88.0117,1.517,8.08,1111122 
DISL,ioos:station:DISL:MBLA:1,2010-05-02T01:13:00Z,30.4367,-88.0117,1.167,8.11,1111122 
DISL,ioos:station:DISL:MBLA:1,2010-05-02T01:15:00Z,30.4367,-88.0117,0.452,8.14,1111122 
DISL,ioos:station:DISL:MBLA:1,2010-05-02T02:03:00Z,30.4367,-88.0117,2.957,7.78,1111122 
DISL,ioos:station:DISL:MBLA:1,2010-05-02T02:05:00Z,30.4367,-88.0117,2.466,8.07,1111122 
DISL,ioos:station:DISL:MBLA:1,2010-05-02T02:08:00Z,30.4367,-88.0117,2.07,8.22,1111122 
DISL,ioos:station:DISL:MBLA:1,2010-05-02T02:10:00Z,30.4367,-88.0117,1.421,8.36,1111122 
DISL,ioos:station:DISL:MBLA:1,2010-05-02T02:12:00Z,30.4367,-88.0117,0.921,8.35,1111122 
DISL,ioos:station:DISL:MBLA:1,2010-05-02T02:15:00Z,30.4367,-88.0117,0.739,8.32,1111122 
DISL,ioos:station:DISL:MBLA:1,2010-05-02T03:03:00Z,30.4367,-88.0117,3.102,7.44,1111122 
DISL,ioos:station:DISL:MBLA:1,2010-05-02T03:05:00Z,30.4367,-88.0117,2.571,8.23,1111122 
DISL,ioos:station:DISL:MBLA:1,2010-05-02T03:08:00Z,30.4367,-88.0117,2.102,8.36,1111122 
DISL,ioos:station:DISL:MBLA:1,2010-05-02T03:10:00Z,30.4367,-88.0117,1.518,8.35,1111122 
DISL,ioos:station:DISL:MBLA:1,2010-05-02T03:13:00Z,30.4367,-88.0117,1.053,8.31,1111122 
DISL,ioos:station:DISL:MBLA:1,2010-05-02T03:16:00Z,30.4367,-88.0117,0.447,8.29,1111122 
DISL,ioos:station:DISL:MBLA:1,2010-05-02T04:02:00Z,30.4367,-88.0117,2.875,7.67,1111122 
DISL,ioos:station:DISL:MBLA:1,2010-05-02T04:05:00Z,30.4367,-88.0117,2.485,7.81,1111122 
DISL,ioos:station:DISL:MBLA:1,2010-05-02T04:07:00Z,30.4367,-88.0117,1.891,7.86,1111122 
DISL,ioos:station:DISL:MBLA:1,2010-05-02T04:10:00Z,30.4367,-88.0117,1.624,7.8,1111122 
DISL,ioos:station:DISL:MBLA:1,2010-05-02T04:12:00Z,30.4367,-88.0117,0.929,7.82,1111122 
DISL,ioos:station:DISL:MBLA:1,2010-05-02T04:15:00Z,30.4367,-88.0117,0.532,7.83,1111122 
DISL,ioos:station:DISL:MBLA:1,2010-05-02T05:03:00Z,30.4367,-88.0117,2.984,7.61,1111122 
DISL,ioos:station:DISL:MBLA:1,2010-05-02T05:05:00Z,30.4367,-88.0117,2.481,7.81,1111122 
DISL,ioos:station:DISL:MBLA:1,2010-05-02T05:08:00Z,30.4367,-88.0117,1.922,7.79,1111122 
DISL,ioos:station:DISL:MBLA:1,2010-05-02T05:10:00Z,30.4367,-88.0117,1.563,7.81,1111122 
DISL,ioos:station:DISL:MBLA:1,2010-05-02T05:13:00Z,30.4367,-88.0117,0.786,7.78,1111122 
DISL,ioos:station:DISL:MBLA:1,2010-05-02T05:15:00Z,30.4367,-88.0117,0.277,7.81,1111122 
DISL,ioos:station:DISL:MBLA:1,2010-05-02T06:03:00Z,30.4367,-88.0117,2.946,7.54,1111122 
DISL,ioos:station:DISL:MBLA:1,2010-05-02T06:05:00Z,30.4367,-88.0117,2.461,7.73,1111122 
DISL,ioos:station:DISL:MBLA:1,2010-05-02T06:08:00Z,30.4367,-88.0117,1.966,7.7,1111122 
DISL,ioos:station:DISL:MBLA:1,2010-05-02T06:11:00Z,30.4367,-88.0117,1.487,7.67,1111122 
DISL,ioos:station:DISL:MBLA:1,2010-05-02T06:14:00Z,30.4367,-88.0117,0.986,7.7,1111122 
DISL,ioos:station:DISL:MBLA:1,2010-05-02T06:16:00Z,30.4367,-88.0117,0.455,7.71,1111122 
DISL,ioos:station:DISL:MBLA:1,2010-05-02T07:02:00Z,30.4367,-88.0117,2.962,7.64,1111122 
DISL,ioos:station:DISL:MBLA:1,2010-05-02T07:05:00Z,30.4367,-88.0117,2.521,7.62,1111122 
DISL,ioos:station:DISL:MBLA:1,2010-05-02T07:07:00Z,30.4367,-88.0117,2.088,7.67,1111122 
DISL,ioos:station:DISL:MBLA:1,2010-05-02T07:10:00Z,30.4367,-88.0117,1.402,7.66,1111122 
DISL,ioos:station:DISL:MBLA:1,2010-05-02T07:12:00Z,30.4367,-88.0117,0.878,7.64,1111122 
DISL,ioos:station:DISL:MBLA:1,2010-05-02T07:15:00Z,30.4367,-88.0117,0.265,7.66,1111122 
DISL,ioos:station:DISL:MBLA:1,2010-05-02T08:02:00Z,30.4367,-88.0117,3.031,7.7,1111122 
DISL,ioos:station:DISL:MBLA:1,2010-05-02T08:05:00Z,30.4367,-88.0117,2.554,7.65,1111122 
DISL,ioos:station:DISL:MBLA:1,2010-05-02T08:07:00Z,30.4367,-88.0117,2.135,7.65,1111122 
DISL,ioos:station:DISL:MBLA:1,2010-05-02T08:10:00Z,30.4367,-88.0117,1.476,7.67,1111122 
DISL,ioos:station:DISL:MBLA:1,2010-05-02T08:13:00Z,30.4367,-88.0117,1.086,7.61,1111122 
DISL,ioos:station:DISL:MBLA:1,2010-05-02T08:15:00Z,30.4367,-88.0117,0.604,7.7,1111122 
DISL,ioos:station:DISL:MBLA:1,2010-05-02T09:03:00Z,30.4367,-88.0117,3.065,7.56,1111122 
DISL,ioos:station:DISL:MBLA:1,2010-05-02T09:05:00Z,30.4367,-88.0117,2.332,7.62,1111122 
DISL,ioos:station:DISL:MBLA:1,2010-05-02T09:08:00Z,30.4367,-88.0117,2.007,7.62,1111122 
DISL,ioos:station:DISL:MBLA:1,2010-05-02T09:10:00Z,30.4367,-88.0117,1.628,7.6,1111122 
DISL,ioos:station:DISL:MBLA:1,2010-05-02T09:12:00Z,30.4367,-88.0117,1.061,7.59,1111122 
DISL,ioos:station:DISL:MBLA:1,2010-05-02T09:15:00Z,30.4367,-88.0117,0.501,7.66,1111122 
DISL,ioos:station:DISL:MBLA:1,2010-05-02T10:02:00Z,30.4367,-88.0117,3.002,7.51,1111122 
DISL,ioos:station:DISL:MBLA:1,2010-05-02T10:05:00Z,30.4367,-88.0117,2.535,7.47,1111122 
DISL,ioos:station:DISL:MBLA:1,2010-05-02T10:08:00Z,30.4367,-88.0117,2.041,7.48,1111122 
DISL,ioos:station:DISL:MBLA:1,2010-05-02T10:10:00Z,30.4367,-88.0117,1.477,7.49,1111122 
DISL,ioos:station:DISL:MBLA:1,2010-05-02T10:13:00Z,30.4367,-88.0117,0.762,7.46,1111122 
DISL,ioos:station:DISL:MBLA:1,2010-05-02T10:15:00Z,30.4367,-88.0117,0.338,7.55,1111122 
DISL,ioos:station:DISL:MBLA:1,2010-05-02T14:03:00Z,30.4367,-88.0117,3.003,7.55,1111122 
DISL,ioos:station:DISL:MBLA:1,2010-05-02T14:05:00Z,30.4367,-88.0117,2.671,7.55,1111122 
DISL,ioos:station:DISL:MBLA:1,2010-05-02T14:07:00Z,30.4367,-88.0117,2.16,7.7,1111122 
DISL,ioos:station:DISL:MBLA:1,2010-05-02T14:10:00Z,30.4367,-88.0117,1.486,7.74,1111122 
DISL,ioos:station:DISL:MBLA:1,2010-05-02T14:13:00Z,30.4367,-88.0117,1.284,7.71,1111122 
DISL,ioos:station:DISL:MBLA:1,2010-05-02T14:15:00Z,30.4367,-88.0117,0.299,7.84,1111122 
DISL,ioos:station:DISL:MBLA:1,2010-05-02T15:02:00Z,30.4367,-88.0117,3.038,7.55,1111122 
DISL,ioos:station:DISL:MBLA:1,2010-05-02T15:05:00Z,30.4367,-88.0117,2.49,7.57,1111122 
DISL,ioos:station:DISL:MBLA:1,2010-05-02T15:07:00Z,30.4367,-88.0117,1.99,7.6,1111122 
DISL,ioos:station:DISL:MBLA:1,2010-05-02T15:11:00Z,30.4367,-88.0117,1.58,7.61,1111122 
DISL,ioos:station:DISL:MBLA:1,2010-05-02T15:13:00Z,30.4367,-88.0117,0.923,7.63,1111122 
DISL,ioos:station:DISL:MBLA:1,2010-05-02T15:16:00Z,30.4367,-88.0117,0.546,7.8,1111122 
DISL,ioos:station:DISL:MBLA:1,2010-05-02T16:02:00Z,30.4367,-88.0117,3.058,7.47,1111122 
DISL,ioos:station:DISL:MBLA:1,2010-05-02T16:05:00Z,30.4367,-88.0117,2.352,7.51,1111122 
DISL,ioos:station:DISL:MBLA:1,2010-05-02T16:07:00Z,30.4367,-88.0117,1.92,7.62,1111122 
DISL,ioos:station:DISL:MBLA:1,2010-05-02T16:10:00Z,30.4367,-88.0117,1.459,7.69,1111122 
DISL,ioos:station:DISL:MBLA:1,2010-05-02T16:13:00Z,30.4367,-88.0117,0.916,7.77,1111122 
DISL,ioos:station:DISL:MBLA:1,2010-05-02T16:16:00Z,30.4367,-88.0117,0.407,8.03,1111122 
DISL,ioos:station:DISL:MBLA:1,2010-05-02T17:02:00Z,30.4367,-88.0117,3.185,7.59,1111122 
DISL,ioos:station:DISL:MBLA:1,2010-05-02T17:05:00Z,30.4367,-88.0117,2.419,7.85,1111122 
DISL,ioos:station:DISL:MBLA:1,2010-05-02T17:08:00Z,30.4367,-88.0117,1.744,7.88,1111122 
DISL,ioos:station:DISL:MBLA:1,2010-05-02T17:10:00Z,30.4367,-88.0117,1.419,7.86,1111122 
DISL,ioos:station:DISL:MBLA:1,2010-05-02T17:13:00Z,30.4367,-88.0117,1.169,7.93,1111122 
DISL,ioos:station:DISL:MBLA:1,2010-05-02T17:16:00Z,30.4367,-88.0117,0.611,8.0,1111122 
DISL,ioos:station:DISL:MBLA:1,2010-05-02T18:02:00Z,30.4367,-88.0117,3.101,7.61,1111122 
DISL,ioos:station:DISL:MBLA:1,2010-05-02T18:05:00Z,30.4367,-88.0117,2.601,7.73,1111122 
DISL,ioos:station:DISL:MBLA:1,2010-05-02T18:07:00Z,30.4367,-88.0117,2.067,7.71,1111122 
DISL,ioos:station:DISL:MBLA:1,2010-05-02T18:10:00Z,30.4367,-88.0117,1.417,7.8,1111122 
DISL,ioos:station:DISL:MBLA:1,2010-05-02T18:12:00Z,30.4367,-88.0117,0.768,7.83,1111122 
DISL,ioos:station:DISL:MBLA:1,2010-05-02T18:15:00Z,30.4367,-88.0117,0.369,7.99,1111122 
DISL,ioos:station:DISL:MBLA:1,2010-05-02T19:03:00Z,30.4367,-88.0117,3.05,7.58,1111122 
DISL,ioos:station:DISL:MBLA:1,2010-05-02T19:05:00Z,30.4367,-88.0117,2.449,7.71,1111122 
DISL,ioos:station:DISL:MBLA:1,2010-05-02T19:07:00Z,30.4367,-88.0117,1.941,7.72,1111122 
DISL,ioos:station:DISL:MBLA:1,2010-05-02T19:10:00Z,30.4367,-88.0117,1.487,7.67,1111122 
DISL,ioos:station:DISL:MBLA:1,2010-05-02T19:13:00Z,30.4367,-88.0117,1.007,7.7,1111122 
DISL,ioos:station:DISL:MBLA:1,2010-05-02T19:16:00Z,30.4367,-88.0117,0.655,7.88,1111122 
DISL,ioos:station:DISL:MBLA:1,2010-05-02T20:02:00Z,30.4367,-88.0117,3.091,7.71,1111122 
DISL,ioos:station:DISL:MBLA:1,2010-05-02T20:05:00Z,30.4367,-88.0117,2.459,7.75,1111122 
DISL,ioos:station:DISL:MBLA:1,2010-05-02T20:07:00Z,30.4367,-88.0117,1.969,7.84,1111122 
DISL,ioos:station:DISL:MBLA:1,2010-05-02T20:10:00Z,30.4367,-88.0117,1.59,7.73,1111122 
DISL,ioos:station:DISL:MBLA:1,2010-05-02T20:13:00Z,30.4367,-88.0117,0.761,7.86,1111122 
DISL,ioos:station:DISL:MBLA:1,2010-05-02T20:16:00Z,30.4367,-88.0117,0.158,8.13,1111122 
DISL,ioos:station:DISL:MBLA:1,2010-05-02T21:02:00Z,30.4367,-88.0117,3.043,7.79,1111122 
DISL,ioos:station:DISL:MBLA:1,2010-05-02T21:05:00Z,30.4367,-88.0117,2.622,7.97,1111122 
DISL,ioos:station:DISL:MBLA:1,2010-05-02T21:07:00Z,30.4367,-88.0117,1.972,7.88,1111122 
DISL,ioos:station:DISL:MBLA:1,2010-05-02T21:10:00Z,30.4367,-88.0117,1.518,7.92,1111122 
DISL,ioos:station:DISL:MBLA:1,2010-05-02T21:12:00Z,30.4367,-88.0117,1.071,7.92,1111122 
DISL,ioos:station:DISL:MBLA:1,2010-05-02T21:15:00Z,30.4367,-88.0117,0.375,8.12,1111122 
DISL,ioos:station:DISL:MBLA:1,2010-05-02T22:03:00Z,30.4367,-88.0117,2.917,7.74,1111122 
DISL,ioos:station:DISL:MBLA:1,2010-05-02T22:05:00Z,30.4367,-88.0117,2.426,7.83,1111122 
DISL,ioos:station:DISL:MBLA:1,2010-05-02T22:08:00Z,30.4367,-88.0117,2.062,7.75,1111122 
DISL,ioos:station:DISL:MBLA:1,2010-05-02T22:11:00Z,30.4367,-88.0117,1.497,7.85,1111122 
DISL,ioos:station:DISL:MBLA:1,2010-05-02T22:15:00Z,30.4367,-88.0117,1.036,7.91,1111122 
DISL,ioos:station:DISL:MBLA:1,2010-05-02T22:17:00Z,30.4367,-88.0117,0.472,8.26,1111122 
DISL,ioos:station:DISL:MBLA:1,2010-05-02T23:03:00Z,30.4367,-88.0117,3.057,7.89,1111122 
DISL,ioos:station:DISL:MBLA:1,2010-05-02T23:05:00Z,30.4367,-88.0117,2.5,8.22,1111122 
DISL,ioos:station:DISL:MBLA:1,2010-05-02T23:08:00Z,30.4367,-88.0117,2.049,8.22,1111122 
DISL,ioos:station:DISL:MBLA:1,2010-05-02T23:10:00Z,30.4367,-88.0117,1.502,8.3,1111122 
DISL,ioos:station:DISL:MBLA:1,2010-05-02T23:13:00Z,30.4367,-88.0117,0.752,8.4,1111122 
DISL,ioos:station:DISL:MBLA:1,2010-05-02T23:16:00Z,30.4367,-88.0117,0.545,8.5,1111122 
DISL,ioos:station:DISL:MBLA:1,2010-05-03T00:03:00Z,30.4367,-88.0117,2.988,7.89,1111122 
DISL,ioos:station:DISL:MBLA:1,2010-05-03T00:05:00Z,30.4367,-88.0117,2.441,8.08,1111122 
DISL,ioos:station:DISL:MBLA:1,2010-05-03T00:08:00Z,30.4367,-88.0117,1.857,8.11,1111122 
DISL,ioos:station:DISL:MBLA:1,2010-05-03T00:10:00Z,30.4367,-88.0117,1.512,8.17,1111122 
DISL,ioos:station:DISL:MBLA:1,2010-05-03T00:13:00Z,30.4367,-88.0117,1.163,8.17,1111122 
DISL,ioos:station:DISL:MBLA:1,2010-05-03T00:15:00Z,30.4367,-88.0117,0.456,8.21,1111122 
DISL,ioos:station:DISL:MBLA:1,2010-05-03T01:03:00Z,30.4367,-88.0117,3.007,7.82,1111122 
DISL,ioos:station:DISL:MBLA:1,2010-05-03T01:05:00Z,30.4367,-88.0117,2.543,7.9,1111122 
DISL,ioos:station:DISL:MBLA:1,2010-05-03T01:08:00Z,30.4367,-88.0117,1.854,7.9,1111122 
DISL,ioos:station:DISL:MBLA:1,2010-05-03T01:10:00Z,30.4367,-88.0117,1.572,7.86,1111122 
DISL,ioos:station:DISL:MBLA:1,2010-05-03T01:13:00Z,30.4367,-88.0117,0.777,7.86,1111122 
DISL,ioos:station:DISL:MBLA:1,2010-05-03T01:15:00Z,30.4367,-88.0117,0.571,7.94,1111122 
DISL,ioos:station:DISL:MBLA:1,2010-05-03T02:03:00Z,30.4367,-88.0117,2.986,7.94,1111122 
DISL,ioos:station:DISL:MBLA:1,2010-05-03T02:05:00Z,30.4367,-88.0117,2.435,7.92,1111122 